Time,TemperatureF,DewpointF,PressureIn,WindDirection,WindDirectionDegrees,WindSpeedMPH,WindSpeedGustMPH,Humidity,HourlyPrecipIn,Conditions,Clouds,dailyrainin,SoftwareType,DateUTC
2013-10-29 00:25:00,25.0,19.0,30.09,NNW,340,5.0,-999.0,79,-99.99,,,-99.99,,2013-10-29 06:25:00,
2013-10-29 00:43:00,25.0,19.0,30.08,NNW,340,6.0,-999.0,79,-99.99,,,-99.99,,2013-10-29 06:43:00,
2013-10-29 00:52:00,25.0,19.0,30.08,NNW,340,5.0,-999.0,79,-99.99,,,-99.99,,2013-10-29 06:52:00,
2013-10-29 01:01:00,25.0,19.0,30.08,NNW,340,5.0,-999.0,79,-99.99,,,-99.99,,2013-10-29 07:01:00,
2013-10-29 01:24:00,25.0,19.0,30.08,North,0,0.0,-999.0,79,-99.99,,,-99.99,,2013-10-29 07:24:00,
2013-10-29 01:44:00,25.0,19.0,30.07,North,0,0.0,-999.0,79,-99.99,,,-99.99,,2013-10-29 07:44:00,
2013-10-29 02:24:00,25.0,19.0,30.07,North,0,0.0,-999.0,79,-99.99,,,-99.99,,2013-10-29 08:24:00,
2013-10-29 02:42:00,25.0,19.0,30.06,North,0,0.0,-999.0,79,-99.99,,,-99.99,,2013-10-29 08:42:00,
2013-10-29 03:21:00,25.0,19.0,30.05,North,10,5.0,-999.0,79,-99.99,,,-99.99,,2013-10-29 09:21:00,
2013-10-29 03:42:00,25.0,19.0,30.05,North,0,0.0,-999.0,79,-99.99,,,-99.99,,2013-10-29 09:42:00,
2013-10-29 04:23:00,25.0,19.0,30.04,North,0,0.0,-999.0,79,-99.99,,,-99.99,,2013-10-29 10:23:00,
2013-10-29 04:42:00,25.0,19.0,30.04,North,0,0.0,-999.0,79,-99.99,,,-99.99,,2013-10-29 10:42:00,
2013-10-29 04:53:00,25.0,19.0,30.03,North,0,0.0,-999.0,79,-99.99,,,-99.99,,2013-10-29 10:53:00,
2013-10-29 05:03:00,25.0,19.0,30.03,North,0,0.0,-999.0,79,-99.99,,,-99.99,,2013-10-29 11:03:00,
2013-10-29 05:22:00,25.0,19.0,30.02,North,0,0.0,-999.0,79,-99.99,,,-99.99,,2013-10-29 11:22:00,
2013-10-29 05:42:00,25.0,19.0,30.02,North,0,0.0,-999.0,79,-99.99,,,-99.99,,2013-10-29 11:42:00,
2013-10-29 06:11:00,25.0,19.0,30.02,North,0,0.0,-999.0,79,-99.99,,,-99.99,,2013-10-29 12:11:00,
2013-10-29 06:21:00,25.0,19.0,30.02,North,0,0.0,-999.0,79,-99.99,,,-99.99,,2013-10-29 12:21:00,
2013-10-29 06:42:00,25.0,19.0,30.02,North,0,0.0,-999.0,79,-99.99,,,-99.99,,2013-10-29 12:42:00,
2013-10-29 07:21:00,25.0,19.0,30.01,North,0,0.0,-999.0,79,-99.99,,,-99.99,,2013-10-29 13:21:00,
2013-10-29 07:42:00,25.0,19.0,30.01,North,0,0.0,-999.0,79,-99.99,,,-99.99,,2013-10-29 13:42:00,
2013-10-29 08:21:00,25.0,19.0,30.00,North,0,0.0,-999.0,79,-99.99,,,-99.99,,2013-10-29 14:21:00,
2013-10-29 08:42:00,25.0,19.0,30.01,North,0,0.0,-999.0,79,-99.99,,,-99.99,,2013-10-29 14:42:00,
2013-10-29 09:11:00,25.0,19.0,30.01,North,0,0.0,-999.0,79,-99.99,,,-99.99,,2013-10-29 15:11:00,
2013-10-29 09:21:00,25.0,19.0,30.01,North,0,0.0,-999.0,79,-99.99,,,-99.99,,2013-10-29 15:21:00,
2013-10-29 09:44:00,25.0,19.0,30.01,North,0,0.0,-999.0,79,-99.99,,,-99.99,,2013-10-29 15:44:00,
2013-10-29 10:23:00,25.0,19.0,30.01,North,0,0.0,-999.0,79,-99.99,,,-99.99,,2013-10-29 16:23:00,
2013-10-29 10:43:00,27.0,19.0,30.00,North,0,0.0,-999.0,73,-99.99,,,-99.99,,2013-10-29 16:43:00,
2013-10-29 11:22:00,27.0,19.0,30.00,North,0,0.0,-999.0,73,-99.99,,,-99.99,,2013-10-29 17:22:00,
2013-10-29 11:42:00,27.0,19.0,30.01,North,0,0.0,-999.0,73,-99.99,,,-99.99,,2013-10-29 17:42:00,
2013-10-29 12:21:00,27.0,19.0,30.00,North,0,0.0,-999.0,73,-99.99,,,-99.99,,2013-10-29 18:21:00,
2013-10-29 12:42:00,27.0,19.0,30.00,North,0,0.0,-999.0,73,-99.99,,,-99.99,,2013-10-29 18:42:00,
2013-10-29 13:21:00,27.0,19.0,29.99,North,0,0.0,-999.0,73,-99.99,,,-99.99,,2013-10-29 19:21:00,
2013-10-29 13:42:00,27.0,19.0,29.98,North,0,0.0,-999.0,73,-99.99,,,-99.99,,2013-10-29 19:42:00,
2013-10-29 14:21:00,28.0,19.0,29.96,North,0,0.0,-999.0,68,-99.99,,,-99.99,,2013-10-29 20:21:00,
2013-10-29 14:42:00,28.0,19.0,29.95,North,0,0.0,-999.0,68,-99.99,,,-99.99,,2013-10-29 20:42:00,
2013-10-29 15:22:00,28.0,19.0,29.95,North,0,0.0,-999.0,68,-99.99,,,-99.99,,2013-10-29 21:22:00,
2013-10-29 15:43:00,28.0,19.0,29.94,North,0,0.0,-999.0,68,-99.99,,,-99.99,,2013-10-29 21:43:00,
2013-10-29 16:23:00,28.0,19.0,29.94,North,0,0.0,-999.0,68,-99.99,,,-99.99,,2013-10-29 22:23:00,
2013-10-29 16:43:00,28.0,19.0,29.95,North,0,0.0,-999.0,68,-99.99,,,-99.99,,2013-10-29 22:43:00,
2013-10-29 17:21:00,28.0,19.0,29.94,North,0,0.0,-999.0,68,-99.99,,,-99.99,,2013-10-29 23:21:00,
2013-10-29 17:42:00,28.0,19.0,29.93,North,0,0.0,-999.0,68,-99.99,,,-99.99,,2013-10-29 23:42:00,
2013-10-29 18:21:00,28.0,19.0,29.93,North,0,0.0,-999.0,68,-99.99,,,-99.99,,2013-10-30 00:21:00,
2013-10-29 18:42:00,27.0,19.0,29.92,North,0,0.0,-999.0,73,-99.99,,,-99.99,,2013-10-30 00:42:00,
2013-10-29 19:22:00,27.0,19.0,29.92,North,0,0.0,-999.0,73,-99.99,,,-99.99,,2013-10-30 01:22:00,
2013-10-29 19:42:00,27.0,21.0,29.92,North,0,0.0,-999.0,79,-99.99,,,-99.99,,2013-10-30 01:42:00,
2013-10-29 20:21:00,27.0,19.0,29.91,North,0,0.0,-999.0,73,-99.99,,,-99.99,,2013-10-30 02:21:00,
2013-10-29 20:42:00,27.0,19.0,29.91,North,0,0.0,-999.0,73,-99.99,,,-99.99,,2013-10-30 02:42:00,
2013-10-29 21:21:00,27.0,21.0,29.91,North,0,0.0,-999.0,79,-99.99,,,-99.99,,2013-10-30 03:21:00,
2013-10-29 21:44:00,27.0,21.0,29.91,North,0,0.0,-999.0,79,-99.99,,,-99.99,,2013-10-30 03:44:00,
2013-10-29 22:24:00,25.0,18.0,29.89,North,0,0.0,-999.0,73,-99.99,,,-99.99,,2013-10-30 04:24:00,
2013-10-29 22:44:00,23.0,18.0,29.89,North,0,0.0,-999.0,79,-99.99,,,-99.99,,2013-10-30 04:44:00,
2013-10-29 22:53:00,25.0,18.0,29.89,North,0,0.0,-999.0,73,-99.99,,,-99.99,,2013-10-30 04:53:00,
2013-10-29 23:03:00,25.0,18.0,29.89,North,0,0.0,-999.0,73,-99.99,,,-99.99,,2013-10-30 05:03:00,
2013-10-29 23:22:00,21.0,16.0,29.88,North,0,0.0,-999.0,79,-99.99,,,-99.99,,2013-10-30 05:22:00,
2013-10-29 23:43:00,21.0,16.0,29.87,North,0,0.0,-999.0,79,-99.99,,,-99.99,,2013-10-30 05:43:00,